#�ϑ�����,���ϕ���,���ϕ���,�ő啗��,�ő啗����������,�ő�u�ԕ���,�ő�u�ԕ�����������
#(�N����),(m/s)   ,(16����),(m/s)   ,(16����)        ,(m/s)       ,(16����)            
2015/1/31 0:01,1.8,14,1.8,13,1.6,16
2015/1/31 0:02,1.8,15,1.8,14,4.4,3
2015/1/31 0:03,1.6,15,1.8,14,4.8,4
2015/1/31 0:04,1.4,1,1.5,14,3.1,1
2015/1/31 0:05,1.2,2,1.4,14,3.5,3
2015/1/31 0:06,1.1,2,1.2,14,1.8,16
2015/1/31 0:07,1.1,2,1.1,14,3,15
2015/1/31 0:08,1.1,3,1.1,14,3.7,9
2015/1/31 0:09,1.2,3,1.2,14,4.2,12
2015/1/31 0:10,1.3,2,1.3,15,6.1,14
2015/1/31 0:11,1.4,2,1.4,14,3,1
2015/1/31 0:12,1.4,1,1.5,15,3.7,15
2015/1/31 0:13,1.5,16,1.5,15,3.1,15
2015/1/31 0:14,1.4,16,1.5,1,2.1,16
2015/1/31 0:15,1.4,15,1.4,1,1.5,16
2015/1/31 0:16,1.6,15,1.6,15,4.1,8
2015/1/31 0:17,1.6,14,1.7,14,3.9,9
2015/1/31 0:18,1.8,13,1.8,13,5.2,10
2015/1/31 0:19,1.9,12,1.9,12,5.1,9
2015/1/31 0:20,1.9,10,2,12,5.6,9
2015/1/31 0:21,1.8,10,1.9,12,3.9,9
2015/1/31 0:22,1.7,10,1.8,12,0.8,12
2015/1/31 0:23,1.6,9,1.7,12,2,1
2015/1/31 0:24,1.6,8,1.6,12,3.2,7
2015/1/31 0:25,2,9,2,12,8.7,8
2015/1/31 0:26,2.1,9,2.2,9,9,8
2015/1/31 0:27,2.2,9,2.2,9,4.9,9
2015/1/31 0:28,2.2,9,2.2,9,5,9
2015/1/31 0:29,2.1,10,2.2,9,2.7,11
2015/1/31 0:30,2.1,10,2.1,9,3.2,12
2015/1/31 0:31,2.2,10,2.2,9,3.5,10
2015/1/31 0:32,2.3,10,2.3,10,3.9,9
2015/1/31 0:33,2.3,10,2.4,10,2.2,8
2015/1/31 0:34,2.4,10,2.4,10,3.1,1
2015/1/31 0:35,2.2,10,2.3,10,3.7,4
2015/1/31 0:36,2,10,2.1,10,2.4,4
2015/1/31 0:37,1.9,9,2,10,2.2,3
2015/1/31 0:38,1.6,7,1.8,10,0.6,15
2015/1/31 0:39,1.5,5,1.6,10,1.8,1
2015/1/31 0:40,1.4,4,1.5,10,2.2,15
2015/1/31 0:41,1.2,4,1.4,10,1.3,1
2015/1/31 0:42,1,4,1.1,10,2.1,10
2015/1/31 0:43,1.1,3,1.1,10,1.4,2
2015/1/31 0:44,1,3,1,10,1.1,9
2015/1/31 0:45,0.9,5,1,10,4.8,8
2015/1/31 0:46,1.1,7,1.1,10,4.9,10
2015/1/31 0:47,1.2,8,1.2,9,6.4,8
2015/1/31 0:48,1.4,8,1.4,7,4.5,8
2015/1/31 0:49,1.6,9,1.6,8,4.2,8
2015/1/31 0:50,1.7,9,1.7,8,5.5,9
2015/1/31 0:51,1.9,8,1.9,8,4.5,9
2015/1/31 0:52,2,9,2,9,4.3,10
2015/1/31 0:53,2,9,2.1,9,4.4,8
2015/1/31 0:54,2.2,9,2.2,9,2.6,12
2015/1/31 0:55,2.1,9,2.2,9,2.5,8
2015/1/31 0:56,1.8,10,2,9,1.3,16
2015/1/31 0:57,1.7,10,1.8,9,2.6,12
2015/1/31 0:58,1.5,11,1.7,9,2.2,12
2015/1/31 0:59,1.5,11,1.5,9,3.2,8
2015/1/31 1:00,1.5,10,1.5,9,4.7,11
2015/1/31 1:01,1.4,11,1.6,9,5,9
2015/1/31 1:02,1.3,11,1.4,9,1.9,10
2015/1/31 1:03,1.2,11,1.3,9,1.4,10
2015/1/31 1:04,1.2,10,1.2,9,2.9,10
2015/1/31 1:05,1.2,10,1.2,9,3,1
2015/1/31 1:06,1.4,11,1.4,10,3.3,16
2015/1/31 1:07,1.4,10,1.4,10,2.5,2
2015/1/31 1:08,1.4,9,1.4,10,3.8,9
2015/1/31 1:09,1.4,8,1.5,10,2.9,3
2015/1/31 1:10,1.2,7,1.4,10,1,3
2015/1/31 1:11,1.3,5,1.3,9,4.3,4
2015/1/31 1:12,1.5,4,1.5,9,4.1,3
2015/1/31 1:13,1.7,2,1.7,2,4.4,15
2015/1/31 1:14,1.7,2,1.7,2,2.9,2
2015/1/31 1:15,1.8,3,1.8,3,3.6,4
2015/1/31 1:16,1.8,3,1.8,3,4.4,4
2015/1/31 1:17,1.7,4,1.7,3,2.7,10
2015/1/31 1:18,1.8,4,1.8,3,5.1,9
2015/1/31 1:19,1.9,5,1.9,4,4.8,12
2015/1/31 1:20,2.1,5,2.1,5,4.7,10
2015/1/31 1:21,2.1,7,2.2,5,4.2,9
2015/1/31 1:22,2.1,8,2.1,5,5.2,11
2015/1/31 1:23,2,7,2.1,5,4.2,16
2015/1/31 1:24,2.2,7,2.2,5,3.7,4
2015/1/31 1:25,2.2,7,2.2,5,3,5
2015/1/31 1:26,2,9,2.1,5,1.5,3
2015/1/31 1:27,2,7,2,5,2.4,8
2015/1/31 1:28,1.9,7,2,5,3.7,8
2015/1/31 1:29,1.9,6,1.9,5,4.1,8
2015/1/31 1:30,1.9,6,2,5,4.4,8
2015/1/31 1:31,1.9,6,1.9,7,3.3,9
2015/1/31 1:32,1.9,6,1.9,7,4.5,7
2015/1/31 1:33,2,7,2,7,4.4,8
2015/1/31 1:34,1.8,7,2,7,2.1,13
2015/1/31 1:35,1.7,8,1.8,7,1.8,8
2015/1/31 1:36,1.8,8,1.8,9,1.6,6
2015/1/31 1:37,1.7,8,1.8,7,1.8,4
2015/1/31 1:38,1.7,8,1.7,6,1.8,2
2015/1/31 1:39,1.8,8,1.8,6,6,16
2015/1/31 1:40,1.7,7,1.7,6,4.7,16
2015/1/31 1:41,1.7,3,1.8,6,3.2,1
2015/1/31 1:42,1.6,16,1.7,6,4.8,9
2015/1/31 1:43,1.7,14,1.7,7,5.6,10
2015/1/31 1:44,1.8,15,1.8,7,5.7,12
2015/1/31 1:45,1.9,15,1.9,15,2.7,16
2015/1/31 1:46,2,15,2,15,4.8,9
2015/1/31 1:47,2.2,13,2.2,14,4.8,9
2015/1/31 1:48,2.3,13,2.3,13,2.6,12
2015/1/31 1:49,2.3,13,2.3,13,4.5,16
2015/1/31 1:50,2.2,13,2.3,13,4.1,16
2015/1/31 1:51,2.1,13,2.2,13,1.5,3
2015/1/31 1:52,2.2,13,2.2,13,3.9,1
2015/1/31 1:53,1.9,14,2.2,13,2.9,11
2015/1/31 1:54,1.9,14,1.9,13,3.1,4
2015/1/31 1:55,1.9,15,1.9,13,3.7,1
2015/1/31 1:56,1.8,16,1.9,13,2.5,2
2015/1/31 1:57,1.6,16,1.7,13,2.1,13
2015/1/31 1:58,1.6,16,1.6,13,5.4,13
2015/1/31 1:59,1.5,15,1.6,13,1.9,2
2015/1/31 2:00,1.4,15,1.5,13,3.1,15
2015/1/31 2:01,1.5,14,1.5,13,4.2,11
2015/1/31 2:02,1.4,14,1.5,13,1.3,3
2015/1/31 2:03,1.5,15,1.5,14,4.1,16
2015/1/31 2:04,1.4,15,1.5,14,3,16
2015/1/31 2:05,1.5,14,1.5,15,3.8,15
2015/1/31 2:06,1.5,14,1.5,16,3.8,15
2015/1/31 2:07,1.5,14,1.5,16,2.4,8
2015/1/31 2:08,1.3,14,1.5,15,1.1,7
2015/1/31 2:09,1.3,15,1.3,15,2.4,2
2015/1/31 2:10,1.3,16,1.3,15,2,15
2015/1/31 2:11,1.3,16,1.3,14,3.9,16
2015/1/31 2:12,1.5,16,1.5,15,4.1,16
2015/1/31 2:13,1.4,16,1.5,15,3.1,16
2015/1/31 2:14,1.4,16,1.4,15,1.6,12
2015/1/31 2:15,1.4,16,1.4,14,3.3,12
2015/1/31 2:16,1.5,1,1.5,14,4.5,2
2015/1/31 2:17,1.5,2,1.5,14,1.9,4
2015/1/31 2:18,1.6,1,1.6,2,1.6,6
2015/1/31 2:19,1.6,1,1.6,2,2.2,3
2015/1/31 2:20,1.8,1,1.8,1,4.2,16
2015/1/31 2:21,1.8,1,1.8,1,3.2,1
2015/1/31 2:22,1.8,1,1.8,1,3.7,1
2015/1/31 2:23,1.9,1,1.9,1,3.8,16
2015/1/31 2:24,1.9,1,1.9,1,2.2,16
2015/1/31 2:25,1.9,1,1.9,1,3.9,13
2015/1/31 2:26,1.8,1,1.9,1,2.9,10
2015/1/31 2:27,1.7,16,1.8,1,2,10
2015/1/31 2:28,1.8,15,1.8,1,2.9,12
2015/1/31 2:29,1.7,15,1.8,1,2.5,10
2015/1/31 2:30,1.5,14,1.7,1,1.1,15
2015/1/31 2:31,1.5,14,1.5,1,3,1
2015/1/31 2:32,1.4,14,1.5,1,2.2,14
2015/1/31 2:33,1.3,14,1.4,1,2.6,14
2015/1/31 2:34,1.3,14,1.3,1,2.5,2
2015/1/31 2:35,1.2,15,1.3,1,1.5,3
2015/1/31 2:36,1.1,16,1.2,1,1,4
2015/1/31 2:37,1.2,16,1.2,16,3.1,1
2015/1/31 2:38,1.3,1,1.3,15,3.5,16
2015/1/31 2:39,1.4,1,1.4,15,3.1,16
2015/1/31 2:40,1.5,1,1.5,14,3.3,15
2015/1/31 2:41,1.5,1,1.5,14,3.5,1
2015/1/31 2:42,1.6,1,1.6,1,4.3,1
2015/1/31 2:43,1.7,1,1.7,1,3.8,15
2015/1/31 2:44,1.9,1,1.9,1,8.2,16
2015/1/31 2:45,2.1,1,2.1,1,6.5,16
2015/1/31 2:46,2.2,1,2.2,1,4.3,1
2015/1/31 2:47,2.2,1,2.2,1,2.9,6
2015/1/31 2:48,2.1,1,2.2,1,2.2,5
2015/1/31 2:49,2,1,2.1,1,1.4,9
2015/1/31 2:50,1.9,2,2,1,2.1,6
2015/1/31 2:51,2,3,2,1,2.4,5
2015/1/31 2:52,1.9,3,2,1,3.6,5
2015/1/31 2:53,1.9,4,2,1,3.3,4
2015/1/31 2:54,1.6,4,1.9,1,1.9,4
2015/1/31 2:55,1.4,5,1.6,1,1.6,8
2015/1/31 2:56,1.3,5,1.4,1,1.3,3
2015/1/31 2:57,1.3,5,1.3,1,2.5,5
2015/1/31 2:58,1.3,5,1.3,1,2.7,6
2015/1/31 2:59,1.6,5,1.6,1,5.5,9
2015/1/31 3:00,1.7,6,1.7,2,3.3,11
2015/1/31 3:01,1.7,6,1.7,3,3.6,9
2015/1/31 3:02,1.6,6,1.7,3,1.8,3
2015/1/31 3:03,1.5,7,1.6,4,3,6
2015/1/31 3:04,1.6,7,1.6,5,3.2,12
2015/1/31 3:05,1.6,8,1.7,5,2.6,15
2015/1/31 3:06,1.7,9,1.7,5,1.9,14
2015/1/31 3:07,1.6,9,1.7,5,1.8,9
2015/1/31 3:08,1.6,10,1.6,5,3.1,11
2015/1/31 3:09,1.4,10,1.6,5,3,12
2015/1/31 3:10,1.3,10,1.4,6,2.7,9
2015/1/31 3:11,1.5,10,1.5,6,5.5,10
2015/1/31 3:12,1.6,10,1.6,8,3.6,11
2015/1/31 3:13,1.7,11,1.7,8,2.7,10
2015/1/31 3:14,1.6,11,1.7,8,2.9,13
2015/1/31 3:15,1.6,11,1.6,9,1.9,16
2015/1/31 3:16,1.7,11,1.7,9,2.9,1
2015/1/31 3:17,1.8,12,1.8,11,3.9,15
2015/1/31 3:18,1.8,12,1.8,11,2.5,15
2015/1/31 3:19,1.9,12,1.9,12,2.6,14
2015/1/31 3:20,1.8,13,1.9,12,2,12
2015/1/31 3:21,1.5,14,1.8,12,1.5,1
2015/1/31 3:22,1.4,15,1.5,12,2.2,14
2015/1/31 3:23,1.3,15,1.4,12,0.9,13
2015/1/31 3:24,1.4,15,1.4,12,3.8,11
2015/1/31 3:25,1.5,14,1.5,12,3.2,12
2015/1/31 3:26,1.6,14,1.6,12,3.5,12
2015/1/31 3:27,1.7,13,1.7,12,3.9,10
2015/1/31 3:28,1.7,12,1.7,12,3.7,10
2015/1/31 3:29,1.9,12,1.9,13,6.1,9
2015/1/31 3:30,2.1,11,2.1,11,5.6,9
2015/1/31 3:31,2.3,11,2.3,11,3.1,9
2015/1/31 3:32,2.3,11,2.3,11,2,13
2015/1/31 3:33,2.5,11,2.5,11,3.1,14
2015/1/31 3:34,2.4,11,2.5,11,2.1,11
2015/1/31 3:35,2.4,11,2.4,11,4.5,11
2015/1/31 3:36,2.4,11,2.4,11,3.8,9
2015/1/31 3:37,2.2,11,2.4,11,1.9,12
2015/1/31 3:38,2,11,2.1,11,1.6,15
2015/1/31 3:39,1.8,12,2,11,3,16
2015/1/31 3:40,1.7,12,1.8,11,2.5,15
2015/1/31 3:41,1.6,13,1.6,11,1.6,1
2015/1/31 3:42,1.5,13,1.6,11,2.2,12
2015/1/31 3:43,1.4,12,1.5,11,3.1,10
2015/1/31 3:44,1.4,13,1.5,11,2.5,10
2015/1/31 3:45,1.3,13,1.4,11,4.8,9
2015/1/31 3:46,1.3,13,1.3,11,4.4,10
2015/1/31 3:47,1.6,13,1.6,11,5.8,10
2015/1/31 3:48,1.9,12,1.9,11,4.9,10
2015/1/31 3:49,1.9,12,1.9,12,3,11
2015/1/31 3:50,1.9,11,1.9,12,4.3,9
2015/1/31 3:51,1.9,11,2,11,4.1,9
2015/1/31 3:52,2,10,2,11,2.2,9
2015/1/31 3:53,1.9,11,2,11,2,9
2015/1/31 3:54,1.9,11,1.9,11,2.5,16
2015/1/31 3:55,1.9,11,2,11,2.4,14
2015/1/31 3:56,1.9,11,1.9,11,2.5,12
2015/1/31 3:57,1.7,11,1.9,11,4.4,10
2015/1/31 3:58,1.9,11,1.9,11,6.1,10
2015/1/31 3:59,2.1,11,2.1,11,5.5,10
2015/1/31 4:00,2.2,11,2.2,11,4.7,10
2015/1/31 4:01,2.4,11,2.4,11,5,10
2015/1/31 4:02,2.6,11,2.6,11,5.1,10
2015/1/31 4:03,2.7,11,2.7,11,3.8,12
2015/1/31 4:04,2.9,11,2.9,11,3.9,15
2015/1/31 4:05,3.1,11,3.1,11,4.5,13
2015/1/31 4:06,3.2,11,3.2,11,4.1,13
2015/1/31 4:07,3.3,12,3.3,12,4.1,13
2015/1/31 4:08,3.2,12,3.3,12,4.8,13
2015/1/31 4:09,3.2,12,3.2,12,6.3,13
2015/1/31 4:10,3.4,13,3.4,13,5.6,12
2015/1/31 4:11,3.5,13,3.5,13,5.1,12
2015/1/31 4:12,3.5,13,3.5,13,4.5,11
2015/1/31 4:13,3.7,13,3.7,13,4.7,12
2015/1/31 4:14,3.9,12,3.9,12,7.5,9
2015/1/31 4:15,3.8,12,3.9,12,7.2,9
2015/1/31 4:16,3.8,12,3.8,12,4.3,10
2015/1/31 4:17,3.7,11,3.8,12,3.9,9
2015/1/31 4:18,3.5,11,3.7,12,3,9
2015/1/31 4:19,3.3,11,3.5,12,3.7,10
2015/1/31 4:20,3,10,3.2,12,2.9,11
2015/1/31 4:21,2.8,11,3,12,2.5,12
2015/1/31 4:22,2.6,11,2.8,12,2.2,13
2015/1/31 4:23,2.5,10,2.6,12,3.9,10
2015/1/31 4:24,2.2,10,2.5,12,4.4,9
2015/1/31 4:25,2.2,10,2.2,12,4.7,9
2015/1/31 4:26,2.1,10,2.2,12,3.2,9
2015/1/31 4:27,2.2,11,2.2,11,3.3,11
2015/1/31 4:28,2.2,11,2.2,11,2.2,11
2015/1/31 4:29,2,10,2.2,11,0.8,8
2015/1/31 4:30,1.8,10,1.9,10,0.8,7
2015/1/31 4:31,1.7,10,1.7,11,2.1,11
2015/1/31 4:32,1.8,10,1.8,11,3.7,13
2015/1/31 4:33,1.8,10,1.8,10,3.1,13
2015/1/31 4:34,1.8,11,1.8,10,3.5,11
2015/1/31 4:35,1.6,11,1.7,10,1.8,8
2015/1/31 4:36,1.7,11,1.7,10,6.2,16
2015/1/31 4:37,1.8,12,1.8,11,6.3,16
2015/1/31 4:38,2,13,2,11,5.7,15
2015/1/31 4:39,2.2,13,2.2,13,5.4,15
2015/1/31 4:40,2.3,13,2.3,13,2.9,11
2015/1/31 4:41,2.4,13,2.4,13,2.7,12
2015/1/31 4:42,2.4,13,2.4,13,4.8,13
2015/1/31 4:43,2.3,14,2.4,13,2.6,16
2015/1/31 4:44,2.1,14,2.3,13,3.3,16
2015/1/31 4:45,2.2,14,2.2,13,2.5,12
2015/1/31 4:46,2.1,14,2.2,13,2.5,13
2015/1/31 4:47,1.8,13,2,13,2,15
2015/1/31 4:48,1.4,13,1.8,13,1.1,12
2015/1/31 4:49,1.2,13,1.4,13,1.3,7
2015/1/31 4:50,1.2,13,1.2,13,1.5,16
2015/1/31 4:51,1.1,14,1.2,13,1.5,16
2015/1/31 4:52,0.8,14,1,13,1.8,8
2015/1/31 4:53,0.8,13,0.9,14,1.8,8
2015/1/31 4:54,0.9,13,0.9,14,3.1,15
2015/1/31 4:55,1,13,1,14,3.6,1
2015/1/31 4:56,1.2,14,1.2,14,8.6,15
2015/1/31 4:57,1.4,14,1.4,13,5,15
2015/1/31 4:58,1.7,15,1.7,15,5.1,16
2015/1/31 4:59,2,15,2,15,4.4,16
2015/1/31 5:00,2.1,15,2.1,15,2.9,16
2015/1/31 5:01,2.2,15,2.2,15,2.7,16
2015/1/31 5:02,2.2,15,2.3,15,2.6,16
2015/1/31 5:03,2.2,15,2.2,15,0.9,6
2015/1/31 5:04,2,16,2.1,15,1,4
2015/1/31 5:05,1.9,16,2,15,2.7,16
2015/1/31 5:06,1.8,16,2,15,6.2,15
2015/1/31 5:07,1.8,16,1.8,15,4.1,16
2015/1/31 5:08,1.8,16,1.8,15,6.7,15
2015/1/31 5:09,1.9,16,1.9,15,4.2,15
2015/1/31 5:10,1.8,16,1.9,15,4.4,15
2015/1/31 5:11,1.9,16,1.9,15,3.7,14
2015/1/31 5:12,2.2,16,2.2,15,6.8,16
2015/1/31 5:13,2.4,16,2.4,16,4.5,15
2015/1/31 5:14,2.7,16,2.7,16,5.1,12
2015/1/31 5:15,2.9,16,2.9,16,6.8,14
2015/1/31 5:16,3,15,3,16,7.4,16
2015/1/31 5:17,3.1,15,3.1,15,6.5,16
2015/1/31 5:18,3,16,3.1,15,4.8,16
2015/1/31 5:19,3,16,3,15,7,1
2015/1/31 5:20,3.3,16,3.3,16,6.1,16
2015/1/31 5:21,3.4,16,3.5,16,6.7,15
2015/1/31 5:22,3.3,15,3.4,16,3.7,15
2015/1/31 5:23,3.3,15,3.4,16,4.4,14
2015/1/31 5:24,3.2,16,3.3,16,3.3,15
2015/1/31 5:25,3,16,3.1,16,3.6,1
2015/1/31 5:26,2.8,16,3,16,4.2,15
2015/1/31 5:27,2.8,16,2.8,16,4.5,16
2015/1/31 5:28,2.7,15,2.8,16,5,16
2015/1/31 5:29,2.5,16,2.7,16,2.2,5
2015/1/31 5:30,2.2,16,2.5,16,2,5
2015/1/31 5:31,2,16,2.1,16,1.8,13
2015/1/31 5:32,2,16,2,15,4.3,16
2015/1/31 5:33,2.1,16,2.1,15,6.2,16
2015/1/31 5:34,2.2,16,2.2,16,4.3,15
2015/1/31 5:35,2.3,16,2.3,16,5.1,2
2015/1/31 5:36,2.4,16,2.4,16,6.8,16
2015/1/31 5:37,2.5,1,2.5,16,5.4,16
2015/1/31 5:38,2.6,1,2.6,16,4.9,16
2015/1/31 5:39,2.8,16,2.8,16,5.4,15
2015/1/31 5:40,2.9,16,2.9,16,4.4,16
2015/1/31 5:41,3.1,16,3.1,16,6.7,14
2015/1/31 5:42,3.1,16,3.1,16,4.8,14
2015/1/31 5:43,3.2,16,3.2,16,7.1,1
2015/1/31 5:44,3.3,15,3.3,16,8.5,13
2015/1/31 5:45,3.2,15,3.3,16,3.6,2
2015/1/31 5:46,3.1,15,3.2,16,6.3,1
2015/1/31 5:47,3.1,15,3.1,16,3.9,16
2015/1/31 5:48,3.2,16,3.2,16,7.7,16
2015/1/31 5:49,3.3,15,3.3,16,7.2,16
2015/1/31 5:50,3.5,16,3.5,16,6.2,16
2015/1/31 5:51,3.6,16,3.6,16,6.3,16
2015/1/31 5:52,3.6,16,3.7,16,5.5,1
2015/1/31 5:53,3.5,16,3.6,16,5.4,15
2015/1/31 5:54,3.5,16,3.6,16,4.7,16
2015/1/31 5:55,3.4,16,3.4,16,2.4,2
2015/1/31 5:56,3.3,16,3.4,16,5.1,14
2015/1/31 5:57,3.5,16,3.5,16,5.8,14
2015/1/31 5:58,3.4,16,3.5,16,4.3,16
2015/1/31 5:59,3.3,16,3.4,16,5,1
2015/1/31 6:00,3.2,16,3.3,16,6.7,16
2015/1/31 6:01,3.2,16,3.3,16,7.8,1
2015/1/31 6:02,3.3,16,3.3,16,7.5,16
2015/1/31 6:03,3.4,16,3.4,16,5.8,2
2015/1/31 6:04,3.6,16,3.6,16,8.6,16
2015/1/31 6:05,3.7,16,3.7,16,5.1,12
2015/1/31 6:06,3.9,15,3.9,15,6,12
2015/1/31 6:07,3.8,15,3.9,15,6.1,16
2015/1/31 6:08,3.8,15,3.8,15,4.9,1
2015/1/31 6:09,3.9,15,3.9,15,7,16
2015/1/31 6:10,3.8,15,3.9,15,4.5,14
2015/1/31 6:11,3.5,15,3.7,15,4.3,15
2015/1/31 6:12,3.3,15,3.5,15,3,16
2015/1/31 6:13,3,15,3.2,15,2.7,2
2015/1/31 6:14,2.6,15,3,15,2.7,4
2015/1/31 6:15,2.6,16,2.6,15,3.7,1
2015/1/31 6:16,2.3,16,2.6,15,4.1,1
2015/1/31 6:17,2.2,16,2.3,15,4.2,8
2015/1/31 6:18,2,15,2.1,15,2.4,10
2015/1/31 6:19,1.8,14,2,15,3.3,12
2015/1/31 6:20,1.7,13,1.8,15,2.1,10
2015/1/31 6:21,1.6,11,1.7,15,1.5,10
2015/1/31 6:22,1.7,10,1.7,15,2.2,4
2015/1/31 6:23,1.8,10,1.8,15,5,16
2015/1/31 6:24,2.2,11,2.2,15,8.7,1
2015/1/31 6:25,2.5,11,2.5,16,9,16
2015/1/31 6:26,2.7,13,2.8,13,6,16
2015/1/31 6:27,3,15,3,15,8.3,16
2015/1/31 6:28,3.3,16,3.3,16,5.7,1
2015/1/31 6:29,3.4,1,3.4,16,6.8,1
2015/1/31 6:30,3.6,1,3.6,1,5.4,16
2015/1/31 6:31,3.8,1,3.8,1,4.5,15
2015/1/31 6:32,4.1,16,4.1,16,11.9,16
2015/1/31 6:33,4.6,16,4.6,16,11.1,15
2015/1/31 6:34,4.5,16,4.6,16,8.6,16
2015/1/31 6:35,4.5,16,4.5,16,9.8,16
2015/1/31 6:36,4.6,16,4.6,16,12.1,1
2015/1/31 6:37,4.8,16,4.8,16,12.1,16
2015/1/31 6:38,4.9,16,4.9,16,10,16
2015/1/31 6:39,5,16,5,16,8.4,16
2015/1/31 6:40,5.2,16,5.2,16,6.7,2
2015/1/31 6:41,5.4,16,5.4,16,7.7,16
2015/1/31 6:42,5.1,16,5.4,16,5,16
2015/1/31 6:43,4.8,16,5.1,16,8.4,15
2015/1/31 6:44,4.9,16,4.9,16,9.8,16
2015/1/31 6:45,4.6,16,4.8,16,6.7,15
2015/1/31 6:46,4.6,16,4.7,16,10.7,16
2015/1/31 6:47,4.5,16,4.6,16,8.2,16
2015/1/31 6:48,4.1,16,4.4,16,3.8,1
2015/1/31 6:49,4.2,16,4.2,16,9,1
2015/1/31 6:50,4.3,16,4.3,16,9.5,16
2015/1/31 6:51,4.1,16,4.3,16,6.1,14
2015/1/31 6:52,4.3,16,4.3,16,6,14
2015/1/31 6:53,4.2,16,4.3,16,4.5,13
2015/1/31 6:54,3.8,16,4.1,16,4.8,1
2015/1/31 6:55,3.7,15,3.8,16,3.7,15
2015/1/31 6:56,3.3,15,3.7,16,2.6,13
2015/1/31 6:57,3,15,3.2,16,5.4,15
2015/1/31 6:58,3,15,3,16,3,14
2015/1/31 6:59,2.6,15,3,16,4.7,15
2015/1/31 7:00,2.2,15,2.5,16,3,16
2015/1/31 7:01,2,15,2.2,16,2.6,15
2015/1/31 7:02,1.8,15,1.9,16,3.6,2
2015/1/31 7:03,2,16,2,16,7.9,15
2015/1/31 7:04,2.5,15,2.5,15,10.8,16
2015/1/31 7:05,2.6,16,2.6,15,6.7,15
2015/1/31 7:06,2.7,16,2.7,15,2.6,15
2015/1/31 7:07,2.6,16,2.7,15,3.6,16
2015/1/31 7:08,3,16,3,15,8.4,16
2015/1/31 7:09,3.4,16,3.4,16,10,15
2015/1/31 7:10,3.8,16,3.8,16,9.7,16
2015/1/31 7:11,4.3,16,4.3,16,10.2,16
2015/1/31 7:12,4.8,16,4.8,16,9.9,16
2015/1/31 7:13,4.7,16,4.8,16,5.4,13
2015/1/31 7:14,4.1,15,4.6,16,4.1,10
2015/1/31 7:15,3.8,16,4,16,2.2,16
2015/1/31 7:16,3.9,15,3.9,16,5,14
2015/1/31 7:17,4,15,4.1,16,5.5,14
2015/1/31 7:18,3.8,14,4,16,4.8,15
2015/1/31 7:19,3.4,15,3.7,16,8.2,2
2015/1/31 7:20,3.3,15,3.4,16,10.5,15
2015/1/31 7:21,3.2,15,3.4,16,8.5,15
2015/1/31 7:22,3.1,15,3.1,16,8.4,15
2015/1/31 7:23,3.1,15,3.1,15,7.5,1
2015/1/31 7:24,3.3,15,3.3,15,5.8,1
2015/1/31 7:25,3.8,16,3.8,15,9.1,1
2015/1/31 7:26,4,16,4.1,15,8.3,15
2015/1/31 7:27,4.1,16,4.1,16,7.4,15
2015/1/31 7:28,4.3,16,4.3,16,6.5,16
2015/1/31 7:29,4.5,15,4.5,16,6.8,14
2015/1/31 7:30,4.4,16,4.6,16,9.4,15
2015/1/31 7:31,4.5,16,4.5,16,8.6,15
2015/1/31 7:32,4.4,15,4.6,16,5.8,16
2015/1/31 7:33,4.5,16,4.5,16,7.5,1
2015/1/31 7:34,4.6,16,4.6,16,7.8,15
2015/1/31 7:35,4.6,15,4.6,16,8.5,15
2015/1/31 7:36,4.8,16,4.8,16,10.9,16
2015/1/31 7:37,5.2,16,5.2,16,10.7,16
2015/1/31 7:38,5.5,16,5.5,16,12.5,16
2015/1/31 7:39,5.6,16,5.6,16,9,16
2015/1/31 7:40,5.6,16,5.6,16,10,1
2015/1/31 7:41,5.8,16,5.8,16,12.4,16
2015/1/31 7:42,6.1,16,6.1,16,9,16
2015/1/31 7:43,6,16,6.2,16,5.6,15
2015/1/31 7:44,5.7,16,6,16,3.2,1
2015/1/31 7:45,5.3,16,5.6,16,4.2,16
2015/1/31 7:46,5.1,16,5.3,16,7.1,16
2015/1/31 7:47,4.9,16,5,16,11,16
2015/1/31 7:48,4.6,16,4.9,16,9.5,16
2015/1/31 7:49,4.2,15,4.6,16,2.6,1
2015/1/31 7:50,3.7,15,4.1,16,3.5,1
2015/1/31 7:51,3.4,16,3.7,16,5.7,1
2015/1/31 7:52,3.1,16,3.3,16,6.9,16
2015/1/31 7:53,3.1,16,3.1,16,7.5,16
2015/1/31 7:54,3.3,16,3.3,16,5.4,16
2015/1/31 7:55,3.4,16,3.4,16,6.7,14
2015/1/31 7:56,3.4,16,3.5,16,6.3,2
2015/1/31 7:57,3,16,3.3,16,2.7,14
2015/1/31 7:58,2.7,16,3,16,2.6,16
2015/1/31 7:59,2.7,16,2.7,15,3.7,15
2015/1/31 8:00,3.4,16,3.4,15,13.5,15
2015/1/31 8:01,3.6,15,3.6,15,9.7,14
2015/1/31 8:02,3.6,15,3.7,15,8.3,13
2015/1/31 8:03,3.7,15,3.7,15,9.1,16
2015/1/31 8:04,4,15,4,15,9,15
2015/1/31 8:05,4.2,15,4.2,15,9,16
2015/1/31 8:06,4.2,15,4.2,15,6.7,16
2015/1/31 8:07,4.3,15,4.3,15,6.1,16
2015/1/31 8:08,4.5,15,4.5,15,5.5,16
2015/1/31 8:09,4.7,15,4.7,15,6.8,1
2015/1/31 8:10,4.2,15,4.7,15,3.5,16
2015/1/31 8:11,3.9,16,4.1,15,3.2,15
2015/1/31 8:12,3.9,16,3.9,15,6,2
2015/1/31 8:13,3.6,16,3.9,15,5.1,15
2015/1/31 8:14,3.3,16,3.5,15,5.6,15
2015/1/31 8:15,3.1,16,3.3,15,7.2,14
2015/1/31 8:16,2.9,15,3.1,15,3.7,16
2015/1/31 8:17,3,16,3,15,7,16
2015/1/31 8:18,3,16,3,15,7.8,1
2015/1/31 8:19,3.2,16,3.2,15,8.1,16
2015/1/31 8:20,3.2,16,3.2,15,4.4,15
2015/1/31 8:21,3.2,16,3.2,16,3.8,16
2015/1/31 8:22,3.2,16,3.2,16,7.6,2
2015/1/31 8:23,3.5,16,3.5,16,8.3,16
2015/1/31 8:24,3.8,16,3.8,16,9,15
2015/1/31 8:25,4,16,4,16,12.1,15
2015/1/31 8:26,4.4,16,4.4,16,10.1,15
2015/1/31 8:27,4.6,16,4.6,16,7.1,14
2015/1/31 8:28,4.4,16,4.5,16,3.8,1
2015/1/31 8:29,4.2,16,4.4,16,6,1
2015/1/31 8:30,4.6,16,4.6,16,10.3,16
2015/1/31 8:31,4.8,16,4.8,16,6.8,16
2015/1/31 8:32,4.6,16,4.8,16,4.1,9
2015/1/31 8:33,4.2,16,4.5,16,2.2,8
2015/1/31 8:34,3.9,16,4.1,16,6.2,15
2015/1/31 8:35,3.8,16,3.9,16,9.2,15
2015/1/31 8:36,3.2,16,3.7,16,2.7,15
2015/1/31 8:37,2.9,1,3.1,16,2.2,6
2015/1/31 8:38,2.9,1,2.9,16,4.2,2
2015/1/31 8:39,2.6,16,2.9,16,3,16
2015/1/31 8:40,2.1,1,2.6,16,2.6,16
2015/1/31 8:41,2,1,2.1,16,5.7,16
2015/1/31 8:42,1.9,16,2,16,2.2,13
2015/1/31 8:43,1.9,16,1.9,16,3.7,4
2015/1/31 8:44,2.2,1,2.2,16,8.6,1
2015/1/31 8:45,2.2,1,2.3,16,8.1,1
2015/1/31 8:46,2.4,1,2.4,16,4.9,12
2015/1/31 8:47,2.5,16,2.5,1,5.1,11
2015/1/31 8:48,2.5,16,2.5,1,2.6,15
2015/1/31 8:49,2.5,16,2.5,1,1.9,15
2015/1/31 8:50,2.4,15,2.4,1,1.6,12
2015/1/31 8:51,2.3,15,2.4,1,2.1,12
2015/1/31 8:52,2.3,15,2.3,1,4.9,4
2015/1/31 8:53,2.3,14,2.4,1,2.7,1
2015/1/31 8:54,1.9,14,2.3,1,2.9,2
2015/1/31 8:55,1.7,14,1.9,1,4.4,1
2015/1/31 8:56,1.7,15,1.8,1,5.8,2
2015/1/31 8:57,1.7,15,1.7,16,6,15
2015/1/31 8:58,1.9,16,1.9,16,6.8,15
2015/1/31 8:59,2.3,16,2.3,16,7.6,16
2015/1/31 9:00,2.5,16,2.5,16,6.1,16
2015/1/31 9:01,2.5,1,2.5,16,3.9,2
2015/1/31 9:02,2.6,16,2.6,1,4.3,15
2015/1/31 9:03,2.8,1,2.8,1,5.1,2
2015/1/31 9:04,3.1,1,3.1,1,7,1
2015/1/31 9:05,3.7,16,3.7,16,11,16
2015/1/31 9:06,3.9,16,3.9,16,9.9,16
2015/1/31 9:07,4.1,16,4.1,16,8.7,12
2015/1/31 9:08,3.9,16,4.1,16,4.9,16
2015/1/31 9:09,3.8,16,3.9,16,6.4,4
2015/1/31 9:10,3.7,16,3.7,16,4.9,1
2015/1/31 9:11,3.9,16,3.9,16,6.4,16
2015/1/31 9:12,4.1,16,4.1,16,6.4,1
2015/1/31 9:13,4.1,16,4.1,16,4.9,16
2015/1/31 9:14,3.8,16,4.1,16,4.3,3
2015/1/31 9:15,3.5,16,3.8,16,9.1,1
2015/1/31 9:16,3.3,16,3.5,16,8.1,16
2015/1/31 9:17,3.5,16,3.5,16,9.2,1
2015/1/31 9:18,3.9,16,3.9,16,11.9,16
2015/1/31 9:19,3.9,16,3.9,16,6.2,16
2015/1/31 9:20,4,16,4,16,6.9,15
2015/1/31 9:21,3.9,16,3.9,16,7.1,1
2015/1/31 9:22,4.1,16,4.1,16,11.4,1
2015/1/31 9:23,4.6,16,4.6,16,12.2,16
2015/1/31 9:24,4.8,16,4.8,16,10.7,1
2015/1/31 9:25,4.9,16,4.9,16,12.7,16
2015/1/31 9:26,5,16,5.1,16,10.2,16
2015/1/31 9:27,5,16,5,16,15,16
2015/1/31 9:28,4.8,16,5.1,16,12.2,16
2015/1/31 9:29,4.7,16,4.7,16,5.6,15
2015/1/31 9:30,4.9,16,4.9,16,9.3,14
2015/1/31 9:31,4.8,16,5,16,4.3,12
2015/1/31 9:32,4.5,16,4.8,16,3.8,12
2015/1/31 9:33,4,15,4.4,16,7.5,11
2015/1/31 9:34,3.8,14,4,16,4.4,14
2015/1/31 9:35,3.6,13,3.9,16,4.1,8
2015/1/31 9:36,3.2,12,3.5,16,4.7,8
2015/1/31 9:37,2.9,11,3.2,16,4.4,8
2015/1/31 9:38,2.7,11,2.8,16,2.6,10
2015/1/31 9:39,2.6,10,2.7,16,2.1,6
2015/1/31 9:40,2.2,9,2.6,16,2.4,5
2015/1/31 9:41,2.2,9,2.2,16,3,16
2015/1/31 9:42,2.2,9,2.2,15,7.9,16
2015/1/31 9:43,2.4,8,2.4,15,10.9,2
2015/1/31 9:44,2.6,6,2.6,14,8.5,1
2015/1/31 9:45,2.6,4,2.7,13,5.2,2
2015/1/31 9:46,2.6,3,2.6,12,3.1,3
2015/1/31 9:47,2.5,3,2.6,11,3.2,5
2015/1/31 9:48,2.5,3,2.5,11,1.9,5
2015/1/31 9:49,2.5,2,2.5,6,2.2,1
2015/1/31 9:50,2.5,1,2.5,6,4.7,8
2015/1/31 9:51,2.6,2,2.6,6,5.2,9
2015/1/31 9:52,2.5,1,2.6,6,3.5,13
2015/1/31 9:53,2.1,16,2.5,6,2.5,12
2015/1/31 9:54,1.9,15,2.1,6,6.4,15
2015/1/31 9:55,1.9,14,2,4,5.2,11
2015/1/31 9:56,2.1,14,2.1,3,7.1,16
2015/1/31 9:57,2.6,15,2.6,1,9.9,2
2015/1/31 9:58,2.9,14,2.9,14,11,1
2015/1/31 9:59,3.3,14,3.3,14,9.4,1
2015/1/31 10:00,3.7,15,3.7,15,11.3,1
2015/1/31 10:01,4.4,16,4.4,16,14.7,15
2015/1/31 10:02,5,16,5,16,13.2,16
2015/1/31 10:03,5.6,16,5.6,16,11.8,15
2015/1/31 10:04,6,1,6,16,11.8,16
2015/1/31 10:05,6.3,16,6.3,16,9.8,16
2015/1/31 10:06,6.6,16,6.6,16,10,1
2015/1/31 10:07,6.5,16,6.6,16,10.2,1
2015/1/31 10:08,6.7,16,6.7,16,11,16
2015/1/31 10:09,6.8,16,7,16,11.3,16
2015/1/31 10:10,6.7,16,6.9,16,11,16
2015/1/31 10:11,6.1,16,6.6,16,7.7,1
2015/1/31 10:12,5.9,16,6.2,16,7.9,16
2015/1/31 10:13,5.9,16,6,16,13.5,1
2015/1/31 10:14,6,16,6,16,11.6,15
2015/1/31 10:15,5.9,16,6,16,12.1,16
2015/1/31 10:16,5.9,16,6,16,9.5,15
2015/1/31 10:17,5.8,16,6.1,16,11.3,16
2015/1/31 10:18,6,16,6,16,15.3,16
2015/1/31 10:19,6,16,6,16,16.6,2
2015/1/31 10:20,6.3,16,6.3,16,11.5,16
2015/1/31 10:21,6.5,16,6.5,16,13.4,16
2015/1/31 10:22,6.4,16,6.5,16,8.1,15
2015/1/31 10:23,6.2,16,6.4,16,10.8,16
2015/1/31 10:24,5.9,16,6.2,16,10.3,16
2015/1/31 10:25,6,16,6,16,10,16
2015/1/31 10:26,6.2,16,6.2,16,11,16
2015/1/31 10:27,6.2,16,6.2,16,7.7,16
2015/1/31 10:28,5.9,16,6.2,16,8.6,16
2015/1/31 10:29,5.6,16,5.8,16,7.4,14
2015/1/31 10:30,5.2,16,5.5,16,8.1,12
2015/1/31 10:31,5.2,16,5.2,16,9.9,16
2015/1/31 10:32,5.2,16,5.2,16,12.4,16
2015/1/31 10:33,5.1,16,5.2,16,8.3,15
2015/1/31 10:34,5.1,16,5.2,16,7.8,16
2015/1/31 10:35,5.1,16,5.2,16,8.5,1
2015/1/31 10:36,4.8,16,5.1,16,7.2,1
2015/1/31 10:37,4.6,16,4.8,16,6.5,16
2015/1/31 10:38,4.8,16,4.8,16,12.6,16
2015/1/31 10:39,5.2,16,5.2,16,13.5,15
2015/1/31 10:40,5.5,16,5.5,16,9.4,15
2015/1/31 10:41,5.5,16,5.6,16,9.8,15
2015/1/31 10:42,5.5,16,5.5,16,9.7,1
2015/1/31 10:43,5.3,16,5.5,16,5.7,16
2015/1/31 10:44,5.1,16,5.3,16,5.6,1
2015/1/31 10:45,4.8,16,5.1,16,4.5,15
2015/1/31 10:46,4.8,16,4.8,16,6.4,15
2015/1/31 10:47,4.7,16,4.7,16,4.2,14
2015/1/31 10:48,4.2,16,4.7,16,6.8,16
2015/1/31 10:49,3.8,16,4.2,16,6.9,16
2015/1/31 10:50,3.5,16,3.8,16,6.4,15
2015/1/31 10:51,3.3,16,3.5,16,6.8,14
2015/1/31 10:52,3.1,16,3.3,16,6.3,14
2015/1/31 10:53,3.1,15,3.1,16,6.1,14
2015/1/31 10:54,3,15,3.1,16,2.6,9
2015/1/31 10:55,3,15,3,16,5.8,1
2015/1/31 10:56,3.1,15,3.1,16,7.5,2
2015/1/31 10:57,3.2,15,3.2,16,8.3,16
2015/1/31 10:58,3.5,15,3.5,16,13.4,16
2015/1/31 10:59,3.6,15,3.6,16,8.5,15
2015/1/31 11:00,3.7,16,3.7,15,6.5,16
2015/1/31 11:01,3.5,16,3.8,16,3.7,14
2015/1/31 11:02,3.5,16,3.5,16,4.3,1
2015/1/31 11:03,3.6,16,3.6,16,8.4,1
2015/1/31 11:04,3.9,1,3.9,1,11.3,1
2015/1/31 11:05,4.4,16,4.4,16,10.6,1